Location: *
(40.7765°S, 106.5327°E)
Time: 15:19:41
(UTC+00:00)

Cosmos 1331 Rocket - Pass Details

Date: 26 May 2022
Orbit: 749 x 778 km, 74.0° (Epoch: 04 July)

Event Time Altitude Azimuth Distance (km) Brightness Sun altitude
Rises 09:55:58 0° 337° (NNW) 3,230 8.1 -3.9°
Reaches altitude 10° 09:58:20 10° 335° (NNW) 2,307 7.3 -4.3°
Maximum altitude 10:03:34 74° 250° (WSW) 805 4.3 -5.2°
Drops below altitude 10° 10:08:50 10° 164° (SSE) 2,318 6.1 -6.1°
Sets 10:11:14 0° 162° (SSE) 3,246 6.9 -6.5°
